Quincy, IL

1:17 AM CDT on March 25, 2017 (GMT -0500)
Quincy Regional-Baldwin

Weather History for KUIN - January, 2014

Change the Weather History Date:

Friday, January 24, 2014

  Actual Average Record
Temperature  
Mean Temperature 19 °F 27 °F  
Max Temperature 37 °F 35 °F 73 °F (1950)
Min Temperature 0 °F 18 °F -10 °F (1963)
Degree Days  
Heating Degree Days 46 39  
Month to date heating degree days 995 932  
Since 1 July heating degree days 3311 3123  
Cooling Degree Days 0 0  
Month to date cooling degree days 0 0  
Year to date cooling degree days 0 0  
Moisture  
Dew Point 3 °F    
Average Humidity 55    
Maximum Humidity 75    
Minimum Humidity 35    
Precipitation  
Precipitation T in 0.05 in 2.93 in (1938)
Month to date precipitation 0.64 1.19  
Year to date precipitation 0.64 1.19  
Sea Level Pressure  
Sea Level Pressure 30.15 in    
Wind  
Wind Speed 19 mph (SW)    
Max Wind Speed 32 mph    
Max Gust Speed 40 mph    
Visibility 10 miles    
Events      
T = Trace of Precipitation, MM = Missing Value Source: NWS Daily Summary

Daily Weather History Graph

Daily Weather History Graph

Search for Another Location

Airport or City:

Trip Planner

Search our weather history database for the weather conditions in past years. The results will help you decide how hot, cold, wet, or windy it might be!

Date:

Astronomy

Jan. 24, 2014 Rise Set
Actual Time 7:19 AM CST 5:14 PM CST
Civil Twilight 6:50 AM CST 5:43 PM CST
Nautical Twilight 6:17 AM CST 6:16 PM CST
Astronomical Twilight 5:45 AM CST 6:48 PM CST
Moon 12:47 AM CST (1/24) 11:33 AM CST (1/24)
Length of Visible Light 10h 53m
Length of Day
9h 54m
Last Quarter, 44% of the Moon is Illuminated
Jan 24
Last Quarter
Jan 30
New
Feb 6
First Quarter
Feb 14
Full
Feb 22
Last Quarter

Hourly Weather History & Observations

Time (CST) Temp. Windchill Dew Point Humidity Pressure Visibility Wind Dir Wind Speed Gust Speed Precip Events Conditions
12:54 AM -0.0 °F -13.0 °F -8.0 °F 69% 30.66 in 10.0 mi SSW 6.9 mph - N/A   Clear
1:54 AM 1.0 °F -12.9 °F -7.1 °F 69% 30.63 in 10.0 mi SSW 8.1 mph - N/A   Clear
2:54 AM 1.9 °F -12.9 °F -6.0 °F 69% 30.60 in 10.0 mi SSW 9.2 mph - N/A   Clear
3:54 AM 1.9 °F -13.8 °F -5.1 °F 72% 30.55 in 10.0 mi SSW 10.4 mph - N/A   Clear
4:54 AM 5.0 °F -13.0 °F -5.1 °F 63% 30.51 in 10.0 mi SSW 15.0 mph - N/A   Clear
5:54 AM 5.0 °F -10.8 °F -4.0 °F 66% 30.48 in 10.0 mi SSW 11.5 mph - N/A   Clear
6:54 AM 6.1 °F -11.6 °F -4.0 °F 63% 30.43 in 10.0 mi SSW 15.0 mph - N/A   Clear
7:54 AM 8.1 °F -10.2 °F -2.9 °F 61% 30.40 in 10.0 mi SSW 17.3 mph - N/A   Clear
8:54 AM 10.9 °F -7.5 °F -0.9 °F 59% 30.36 in 10.0 mi SSW 19.6 mph 27.6 mph N/A   Clear
9:54 AM 16.0 °F -1.3 °F -0.0 °F 49% 30.32 in 10.0 mi SSW 20.7 mph 28.8 mph N/A   Clear
10:54 AM 19.0 °F 0.6 °F -0.0 °F 43% 30.24 in 10.0 mi SSW 27.6 mph 35.7 mph N/A   Clear
11:54 AM 21.9 °F 4.8 °F 1.0 °F 40% 30.14 in 10.0 mi SW 26.5 mph 39.1 mph N/A   Clear
12:54 PM 26.1 °F 9.8 °F 3.9 °F 39% 30.05 in 10.0 mi SSW 28.8 mph 38.0 mph N/A   Clear
1:54 PM 30.0 °F 15.4 °F 7.0 °F 38% 29.98 in 10.0 mi SW 27.6 mph 40.3 mph N/A   Clear
2:54 PM 30.9 °F 18.4 °F 6.1 °F 35% 29.95 in 10.0 mi SW 20.7 mph 28.8 mph N/A   Clear
3:54 PM 32.0 °F 17.6 °F 8.1 °F 37% 29.92 in 10.0 mi WSW 29.9 mph 38.0 mph N/A   Mostly Cloudy
4:54 PM 32.0 °F 19.2 °F 8.1 °F 37% 29.90 in 10.0 mi WSW 23.0 mph 29.9 mph N/A   Overcast
5:54 PM 32.0 °F 20.5 °F 9.0 °F 38% 29.88 in 10.0 mi WSW 18.4 mph 29.9 mph N/A   Overcast
6:54 PM 33.1 °F 21.5 °F 8.1 °F 35% 29.86 in 10.0 mi SW 19.6 mph 26.5 mph N/A   Overcast
7:54 PM 33.1 °F 21.9 °F 10.0 °F 38% 29.81 in 10.0 mi SW 18.4 mph 26.5 mph N/A   Overcast
8:54 PM 33.1 °F 22.2 °F 10.0 °F 38% 29.77 in 10.0 mi SW 17.3 mph 24.2 mph N/A   Overcast
9:54 PM 34.0 °F 22.7 °F 10.9 °F 38% 29.72 in 10.0 mi SW 19.6 mph 31.1 mph N/A   Overcast
10:54 PM 35.1 °F 24.1 °F 12.9 °F 40% 29.68 in 10.0 mi SW 19.6 mph 29.9 mph N/A   Overcast
11:54 PM 36.0 °F 25.6 °F 15.1 °F 43% 29.65 in 10.0 mi WSW 18.4 mph 26.5 mph 0.00 in   Overcast